Regional Weather Roundup
Issued by NWS

Home | Current Version | Previous Version | Text Only | Print | Product List | Glossary Off
Versions: 1 2 3 4 5 6 7 8 9 10 11 12 13 14 15 16 17 18 19 20 21 22 23 24 25 26 27 28 29 30 31 32 33 34 35 36 37 38 39 40 41 42 43 44 45 46 47 48 49 50

000
ASUS43 KMPX 212301
RWRMN
WEATHER ROUNDUP FOR MINNESOTA
NATIONAL WEATHER SERVICE TWIN CITIES/CHANHASSEN MN
500 PM CST TUE FEB 21 2017


NOTE: "FAIR" INDICATES FEW OR NO CLOUDS BELOW 12,000 FEET WITH NO
SIGNIFICANT WEATHER AND/OR OBSTRUCTIONS TO VISIBILITY. N/A MEANS
CURRENT SKY AND/OR WEATHER CONDITIONS ARE NOT AVAILABLE.

MNZ060>063-068>070-220000-
   Twin Cities Metro

CITY           SKY/WX    TMP DP  RH WIND       PRES   REMARKS
TWIN CITIES    MOCLDY    60  44  55 SW9       29.71S
ST PAUL        CLOUDY    59  44  57 S8        29.71F
CRYSTAL        MOCLDY    60  43  53 S8        29.69F
BLAINE         MOCLDY    61  45  55 S8G16     29.70S
LAKEVILLE      CLOUDY    57  46  67 S7        29.72S
EDEN PRAIRIE   PTCLDY    59  46  62 S9        29.70S
SOUTH ST PAUL  CLOUDY    58  43  56 S8        29.71F
LAKE ELMO      FAIR      57  43  58 S13       29.72F
$$
MNZ001>005-007-008-013>017-022>024-027-028-220000-
   Northwest Minnesota

CITY           SKY/WX    TMP DP  RH WIND       PRES   REMARKS
BEMIDJI        PTCLDY    46  34  62 S6        29.64S
HALLOCK        PTCLDY    34  34 100 N3        29.66F
ROSEAU         MOCLDY    36  30  80 CALM      29.66S
WARROAD        PTCLDY    32  28  86 N3        29.67S
THIEF RVR FALL CLEAR     42  37  82 CALM      29.66S
CROOKSTON      PTCLDY    37  37 100 CALM      29.67F FOG
FOSSTON        CLOUDY    39  36  87 W5        29.67S
DETROIT LAKES  MOCLDY    45  37  76 CALM      29.67F
MOORHEAD       MOCLDY    46  37  71 CALM      29.67F
PARK RAPIDS    CLOUDY    42  34  73 SW7       29.66S
MAHNOMEN       FAIR      42  39  88 SW3       29.66F
$$
MNZ006-009>011-018-025>026-220000-
   North Central Minnesota

CITY           SKY/WX    TMP DP  RH WIND       PRES   REMARKS
BAUDETTE       CLOUDY    41  34  76 CALM      29.65S
FLAG ISLAND    CLOUDY    32  30  93 CALM      29.67F FOG
INTL FALLS     CLEAR     42  33  70 NE5       29.65R
WASKISH        CLOUDY    46  36  66 CALM      29.65R
BIG FORK       PTCLDY    46  34  61 S5        29.65S
LONGVILLE      CLOUDY    46  37  71 CALM      29.67R
GRAND RAPIDS   PTCLDY    44  36  73 S6        29.68S
CRANE LAKE     CLEAR     45  36  70 CALM      29.68R
ORR            CLOUDY    46  30  53 CALM      29.63S
COOK           CLOUDY    46  34  61 CALM      29.66F
WALKER         FAIR      45  36  69 SW5       29.65S
$$
MNZ012-019>021-037-220000-
   Northeast Minnesota

CITY           SKY/WX    TMP DP  RH WIND       PRES   REMARKS
DULUTH         PTCLDY    47  35  63 SW8       29.68S
ELY            PTCLDY    48  32  53 CALM      29.67S
HIBBING        MOCLDY    45  32  60 SE5       29.66F
EVELETH        PTCLDY    45  30  55 SW8       29.68S
DULUTH HARBOR  MOCLDY    37  34  87 CALM      29.71R
TWO HARBORS    PTCLDY    50  37  62 CALM      29.68S
SILVER BAY     PTCLDY    48  34  57 CALM      29.68F
GRAND MARAIS     N/A     39  35  86 CALM      29.72F
G MARAIS ARPRT CLEAR     43  30  61 CALM      29.69F
$$
MNZ029>031-032-039>041-046>048-054>057-064-220000-
   West Central Minnesota

CITY           SKY/WX    TMP DP  RH WIND       PRES   REMARKS
FERGUS FALLS   CLOUDY    48  41  76 CALM      29.71S
WHEATON        CLOUDY    54  43  66 N3        29.69S
MORRIS         CLOUDY    54  46  76 CALM      29.68S
ALEXANDRIA     CLOUDY    51  43  74 SW6       29.69R
ELBOW LAKE     FAIR      49  44  83 CALM      29.69S
WADENA         CLOUDY    46  37  71 W7        29.67S
GLENWOOD       MOCLDY    54  45  71 W6        29.69S
APPLETON       CLOUDY    59  43  55 CALM      29.69R
BENSON         CLEAR     59  43  55 SW6       29.70S
ORTONVILLE       N/A     59  41  51 CALM      29.67S
MADISON        CLEAR     63  46  55 W6        29.69R
WILLMAR        FAIR      57  48  72 W5        29.70F
$$
MNZ033>034-036-042>043-049>051-058-059-220000-
   Central Minnesota

CITY           SKY/WX    TMP DP  RH WIND       PRES   REMARKS
ST CLOUD       PTCLDY    54  44  69 SW10      29.69R
SAUK CENTRE    MOCLDY    49  44  84 S3        29.67F
PAYNESVILLE    CLOUDY    53  43  70 SW7       29.70S
AITKIN         CLOUDY    46  36  66 SE3       29.66S
PINE RIVER     CLOUDY    48  39  71 S3        29.70S
BRAINERD       CLOUDY    49  39  68 S8        29.67F
STAPLES        CLOUDY    46  37  71 W3        29.68S
LONG PRAIRIE   MOCLDY    48  39  71 CALM      29.69R
LITTLE FALLS   CLOUDY    52  41  66 SW3       29.69S
LITCHFIELD     MOCLDY    57  48  72 W3        29.70S
BUFFALO        MOCLDY    56  44  64 SW3       29.70S
MAPLE LAKE     MOCLDY    57  47  71 SW5       29.70S
HUTCHINSON     PTCLDY    59  50  70 SW5       29.70F
$$
MNZ037-044-045-052-053-220000-
   East Central Minnesota

CITY           SKY/WX    TMP DP  RH WIND       PRES   REMARKS
PRINCETON      PTCLDY    57  45  62 SW7       29.69S
MORA           CLOUDY    50  43  76 SW3       29.70S
CAMBRIDGE      CLOUDY    59  45  58 SW6       29.67S
RUSH CITY      PTCLDY    54  41  62 S5        29.69S
MOOSE LAKE     CLOUDY    46  37  71 NW3       29.67R
HINCKLEY       FAIR      50  43  76 S6        29.68S
CLOQUET        CLOUDY    46  34  61 S6        29.68S
MCGREGOR       CLOUDY    45  37  76 S3        29.68S
$$
MNZ071>073-080-081-089-090-097-098-220000-
   Southwest Minnesota

CITY           SKY/WX    TMP DP  RH WIND       PRES   REMARKS
MONTEVIDEO     CLEAR     63  48  59 NW3       29.70F
GRANITE FALLS  CLEAR     62  50  66 S7        29.71S
CANBY          CLEAR     62  42  49 SW9       29.70S
MARSHALL       CLEAR     61  45  55 W14       29.70S
REDWOOD FALLS  CLEAR     62  42  47 W10       29.69F
OLIVIA         PTCLDY    59  46  63 W8        29.69F
PIPESTONE      CLEAR     61  39  44 SW8       29.72S
WINDOM         CLEAR     63  46  55 SW12      29.72S
WORTHINGTON    CLEAR     62  45  53 SW14      29.73S
JACKSON        CLEAR     61  43  51 SW17G24   29.73F
TRACY          CLEAR     61  45  56 SW13      29.71R
SLAYTON        CLEAR     59  43  55 SW14      29.72F
$$
MNZ065>067-074>077-082>085-091>093-220000-
   South Central Minnesota

CITY           SKY/WX    TMP DP  RH WIND       PRES   REMARKS
MANKATO          N/A     60  47  61 S9        29.73R
NEW ULM        CLOUDY    61  46  59 SW9       29.70F
ST JAMES       PTCLDY    63  46  55 S9        29.72F
FAIRMONT       CLOUDY    62  47  57 S12       29.74S
GLENCOE        CLOUDY    59  50  72 SW6       29.70S
FARIBAULT      PTCLDY    57  46  67 S13G20    29.74S
OWATONNA       MOCLDY    55  45  67 S14G21    29.75S
WASECA         PTCLDY    55  50  82 S13       29.75F
ALBERT LEA     CLOUDY    57  45  62 S15G22    29.75F
$$
MNZ078>079-086>088-094>096-220000-
   Southeast Minnesota

CITY           SKY/WX    TMP DP  RH WIND       PRES   REMARKS
ROCHESTER      PTCLDY    52  44  74 S17       29.77F
RED WING       PTCLDY    59  39  47 SW6       29.75R
STANTON        CLOUDY    57  47  67 S10       29.72F
DODGE CENTER   PTCLDY    54  45  71 S17G24    29.76F
WINONA         CLOUDY    55  37  50 S7        29.79S
AUSTIN         CLOUDY    54  45  71 S12       29.77F
PRESTON        CLOUDY    52  42  69 S12G17    29.80F
$$
ABBREVIATIONS USED IN REMARKS
   TC - TEMPERATURES IN CELSIUS
  WCI - WIND CHILL INDEX
   HX - HEAT INDEX
  VSB - VISIBILITY
$$



USA.gov is the U.S. government's official web portal to all federal, state and local government web resources and services.